Arlington, WA
on Friday, February 8, 2013

Friday
Previous Day Next Day
Daily Summary
 ActualAverageRecord
Temperature
Mean Temperature °F °F  
Max Temperature 42°F 62°F 62°F (1977)
Min Temperature 24°F 31°F 14°F (2014)
Degree Days
Heating Degree Days 32    
Moisture
Dew Point 31°F   
Average Humidity 89    
Maximum Humidity 100    
Minimum Humidity 74    
Precipitation
Precipitation 0.00 in in in ()
Wind
Wind Speed 0 mph   
Max Wind Speed 5 mph   
Max Gust Speed mph   
Visibility 7 miles   
Events     
Averages and records for this station are not official NWS values.
Key: T is trace of precipitation, MM is missing value
Source: NWS Daily Summary
Seasonal Weather Averages
Time(PST)TemperatureDew PointHumidity Pressure Visibility Wind DirectionWind SpeedGust SpeedPrecipitationEvents Conditions
12:15 AM 26.6°F 24.8°F 93% 30.22 in 1.0 miles Calm Calm - N/A   Clear
12:35 AM 28.4°F 28.4°F 100% 30.22 in 1.0 miles North - - N/A   Clear
12:55 AM 28.4°F 28.4°F 100% 30.22 in 0.5 miles Calm Calm - N/A   Mostly Cloudy
1:35 AM 28.4°F 24.8°F 86% 30.23 in 0.5 miles Calm Calm - N/A   Overcast
1:55 AM 28.4°F 26.6°F 93% 30.23 in 0.5 miles Calm Calm - N/A   Overcast
2:15 AM 26.6°F 26.6°F 100% 30.24 in 0.2 miles Calm Calm - N/A   Overcast
2:35 AM 26.6°F 24.8°F 93% 30.24 in 0.2 miles Calm Calm - N/A   Overcast
2:55 AM 26.6°F 24.8°F 93% 30.24 in 0.8 miles Calm Calm - N/A   Overcast
3:15 AM 26.6°F 24.8°F 93% 30.24 in 1.0 miles Calm Calm - N/A   Overcast
3:35 AM 26.6°F 24.8°F 93% 30.25 in 0.2 miles Calm Calm - N/A   Overcast
3:55 AM 24.8°F 17.6°F 74% 30.25 in 0.2 miles Calm Calm - N/A   Overcast
4:15 AM 24.8°F 23.0°F 93% 30.26 in 0.5 miles Calm Calm - N/A   Overcast
4:35 AM 26.6°F 24.8°F 93% 30.27 in 0.2 miles Calm Calm - N/A   Overcast
4:55 AM 26.6°F 24.8°F 93% 30.27 in 0.2 miles Calm Calm - N/A   Overcast
5:15 AM 26.6°F 24.8°F 93% 30.27 in 0.2 miles Calm Calm - N/A   Overcast
5:35 AM 26.6°F 24.8°F 93% 30.27 in 0.2 miles Calm Calm - N/A   Overcast
5:55 AM 28.4°F 26.6°F 93% 30.27 in 0.5 miles Calm Calm - N/A   Overcast
6:15 AM 28.4°F 26.6°F 93% 30.27 in 0.2 miles Calm Calm - N/A   Overcast
6:35 AM 26.6°F 26.6°F 100% 30.28 in 0.2 miles Calm Calm - N/A   Overcast
6:55 AM 28.4°F 24.8°F 86% 30.28 in 0.2 miles Calm Calm - N/A   Overcast
7:15 AM 28.4°F 26.6°F 93% 30.30 in 0.2 miles Calm Calm - N/A   Overcast
7:35 AM 28.4°F 26.6°F 93% 30.30 in 0.2 miles Calm Calm - N/A   Overcast
7:55 AM 28.4°F 28.4°F 100% 30.30 in 8.0 miles Calm Calm - N/A   Overcast
8:15 AM 30.2°F 28.4°F 93% 30.31 in 10.0 miles Calm Calm - N/A   Overcast
8:35 AM 30.2°F 28.4°F 93% 30.31 in 10.0 miles Calm Calm - N/A   Overcast
8:55 AM 30.2°F 28.4°F 93% 30.31 in 10.0 miles Calm Calm - N/A   Overcast
9:15 AM 30.2°F 28.4°F 93% 30.31 in 10.0 miles Calm Calm - N/A   Overcast
9:35 AM 30.2°F 28.4°F 93% 30.32 in 10.0 miles Calm Calm - N/A   Overcast
9:55 AM 32.0°F 30.2°F 93% 30.32 in 10.0 miles Calm Calm - N/A   Overcast
10:15 AM 33.8°F 30.2°F 87% 30.32 in 10.0 miles Calm Calm - N/A   Overcast
10:35 AM 33.8°F 32.0°F 93% 30.33 in 10.0 miles Calm Calm - N/A   Overcast
10:55 AM 33.8°F 32.0°F 93% 30.33 in 10.0 miles Calm Calm - N/A   Overcast
11:15 AM 35.6°F 33.8°F 93% 30.33 in 10.0 miles Calm Calm - N/A   Overcast
11:35 AM 37.4°F 33.8°F 87% 30.32 in 10.0 miles Calm Calm - N/A   Overcast
11:55 AM 37.4°F 33.8°F 87% 30.32 in 10.0 miles Calm Calm - N/A   Overcast
12:15 PM 39.2°F 35.6°F 87% 30.31 in 10.0 miles Calm Calm - N/A   Overcast
12:35 PM 39.2°F 33.8°F 81% 30.30 in 10.0 miles Calm Calm - N/A   Overcast
12:55 PM 39.2°F 35.6°F 87% 30.30 in 10.0 miles Calm Calm - N/A   Overcast
1:15 PM 39.2°F 33.8°F 81% 30.30 in 10.0 miles Calm Calm - N/A   Overcast
1:35 PM 41.0°F 33.8°F 76% 30.30 in 10.0 miles Calm Calm - N/A   Overcast
1:55 PM 42.8°F 35.6°F 76% 30.30 in 10.0 miles Calm Calm - N/A   Overcast
2:15 PM 42.8°F 35.6°F 76% 30.30 in 10.0 miles Calm Calm - N/A   Overcast
2:35 PM 42.8°F 35.6°F 76% 30.30 in 10.0 miles Calm Calm - N/A   Overcast
2:55 PM 42.8°F 35.6°F 76% 30.30 in 10.0 miles Calm Calm - N/A   Overcast
3:35 PM 42.8°F 35.6°F 76% 30.30 in 10.0 miles Calm Calm - N/A   Overcast
3:55 PM 42.8°F 35.6°F 76% 30.30 in 10.0 miles NW 4.6 mph - N/A   Overcast
4:15 PM 42.8°F 35.6°F 76% 30.30 in 10.0 miles NW 4.6 mph - N/A   Overcast
4:35 PM 41.0°F 35.6°F 81% 30.30 in 10.0 miles Calm Calm - N/A   Overcast
4:55 PM 41.0°F 35.6°F 81% 30.30 in 10.0 miles Calm Calm - N/A   Overcast
5:15 PM 41.0°F 35.6°F 81% 30.29 in 10.0 miles Calm Calm - N/A   Overcast
5:35 PM 41.0°F 35.6°F 81% 30.29 in 10.0 miles Calm Calm - N/A   Overcast
5:55 PM 39.2°F 35.6°F 87% 30.30 in 10.0 miles Calm Calm - N/A   Overcast
6:15 PM 41.0°F 33.8°F 76% 30.30 in 10.0 miles Calm Calm - N/A   Overcast
6:35 PM 39.2°F 35.6°F 87% 30.30 in 10.0 miles Calm Calm - N/A   Overcast
6:55 PM 39.2°F 35.6°F 87% 30.29 in 10.0 miles Calm Calm - N/A   Overcast
7:15 PM 39.2°F 35.6°F 87% 30.30 in 10.0 miles Calm Calm - N/A   Overcast
7:35 PM 39.2°F 35.6°F 87% 30.30 in 10.0 miles Calm Calm - N/A   Overcast
7:55 PM 39.2°F 35.6°F 87% 30.30 in 10.0 miles Calm Calm - N/A   Overcast
8:15 PM 39.2°F 35.6°F 87% 30.30 in 10.0 miles Calm Calm - N/A   Overcast
8:35 PM 37.4°F 35.6°F 93% 30.30 in 10.0 miles Calm Calm - N/A   Overcast
8:55 PM 37.4°F 35.6°F 93% 30.30 in 10.0 miles Calm Calm - N/A   Overcast
9:15 PM 37.4°F 33.8°F 87% 30.30 in 10.0 miles Calm Calm - N/A   Overcast
9:35 PM 37.4°F 33.8°F 87% 30.30 in 10.0 miles Calm Calm - N/A   Overcast
9:55 PM 37.4°F 35.6°F 93% 30.30 in 10.0 miles Calm Calm - N/A   Overcast
10:15 PM 37.4°F 35.6°F 93% 30.30 in 10.0 miles Calm Calm - N/A   Overcast
10:35 PM 37.4°F 35.6°F 93% 30.30 in 10.0 miles Calm Calm - N/A   Overcast
10:55 PM 37.4°F 35.6°F 93% 30.30 in 10.0 miles Calm Calm - N/A   Overcast
11:15 PM 37.4°F 35.6°F 93% 30.29 in 10.0 miles Calm Calm - N/A   Overcast
11:35 PM 37.4°F 33.8°F 87% 30.30 in 10.0 miles Calm Calm - N/A   Overcast
11:55 PM 37.4°F 35.6°F 93% 30.30 in 10.0 miles Calm Calm - N/A   Overcast
Moon Phase
Feb. 08 Feb. 10 Feb. 17 Feb. 25 Mar. 04
Sunrise:07:26 AM (PST) Moon Rise:06:02 AM (PST)2/8
Sunset:05:20 PM (PST) Moon Set:03:57 PM (PST)2/8

Copyright © 2014 The Weather Underground, Inc.